Date String (YYYY-MM-DD hh:mm:ss) UTC,Instrument flags,Ambient pressure (hPa),Sample flow (lpm),Bypass flow (lpm),Sample temperature (°C),Ambient temperature (°C),ASC tube jacket temperature (°C),LED temperature (°C),Box temperature (°C),Sample RH (%),Span deviation,Mass concentration (μg/m³),Mass concentration (μg/m³),Mass concentration (μg/m³)
DateTimeUTC,F1_M11,P_M11,Q1_M11,Q2_M11,T1_M11,T2_M11,T3_M11,T4_M11,T5_M11,U1_M11,ZSPAN_M11,X0_M11,X2_M11,X1_M11
2021-12-11 05:00:00,,0822.7,5.01,0.00,22.3,22.6,00.0,31.3,24.1,05.4,0000.0,0005.66,0001.44,0001.02
2021-12-11 05:01:00,,0822.7,4.99,0.00,22.4,23.1,00.0,31.3,24.3,05.3,0000.0,0005.65,0001.44,0001.02
2021-12-11 05:02:00,,0822.7,5.00,0.00,22.5,22.9,00.0,31.4,24.3,05.1,0000.0,0005.51,0001.42,0001.02
2021-12-11 05:03:00,,0822.7,5.01,0.00,22.4,22.6,00.0,31.4,24.2,05.1,0000.0,0004.92,0001.37,0001.03
2021-12-11 05:04:00,,0822.6,4.98,0.00,22.4,22.3,00.0,31.4,24.0,05.2,0000.0,0003.95,0001.37,0001.04
2021-12-11 05:05:00,,0822.6,5.00,0.00,22.3,22.1,00.0,31.3,23.9,05.3,0000.0,0003.45,0001.34,0001.04
2021-12-11 05:06:00,,0822.6,5.01,0.00,22.3,21.9,00.0,31.3,23.8,05.3,0000.0,0003.43,0001.36,0001.04
2021-12-11 05:07:00,,0822.7,4.99,0.00,22.2,21.7,00.0,31.3,23.8,05.2,0000.0,0003.60,0001.38,0001.04
2021-12-11 05:08:00,,0822.6,5.01,0.00,22.2,21.6,00.0,31.3,23.7,05.2,0000.0,0003.58,0001.37,0001.04
2021-12-11 05:09:00,,0822.6,4.99,0.00,22.1,21.5,00.0,31.3,23.7,05.3,0000.0,0003.58,0001.39,0001.06
2021-12-11 05:10:00,,0822.6,5.01,0.00,22.1,21.4,00.0,31.3,23.7,05.3,0000.0,0003.69,0001.42,0001.07
2021-12-11 05:11:00,,0822.6,5.01,0.00,22.1,21.4,00.0,31.3,23.7,05.2,0000.0,0002.57,0001.45,0001.07
2021-12-11 05:12:00,,0822.6,5.00,0.00,22.0,21.3,00.0,31.2,23.6,05.2,0000.0,0002.56,0001.44,0001.07
2021-12-11 05:13:00,,0822.6,5.00,0.00,22.0,21.3,00.0,31.2,23.6,05.3,0000.0,0003.22,0001.46,0001.07
2021-12-11 05:14:00,,0822.7,4.99,0.00,22.1,21.9,00.0,31.2,23.8,05.2,0000.0,0003.32,0001.48,0001.06
2021-12-11 05:15:00,,0822.7,5.01,0.00,22.2,22.7,00.0,31.2,24.1,05.2,0000.0,0003.34,0001.46,0001.04
2021-12-11 05:16:00,,0822.7,5.00,0.00,22.4,23.1,00.0,31.3,24.3,05.2,0000.0,0003.36,0001.46,0001.03
2021-12-11 05:17:00,,0822.6,5.00,0.00,22.4,22.8,00.0,31.3,24.2,05.3,0000.0,0003.32,0001.43,0001.02
2021-12-11 05:18:00,,0822.7,4.99,0.00,22.3,22.4,00.0,31.3,23.9,05.3,0000.0,0003.76,0001.40,0001.02
2021-12-11 05:19:00,,0822.6,5.01,0.00,22.2,22.0,00.0,31.3,23.6,05.3,0000.0,0003.87,0001.39,0001.01
2021-12-11 05:20:00,,0822.6,4.99,0.00,22.0,21.6,00.0,31.2,23.4,05.4,0000.0,0003.79,0001.35,0000.99
2021-12-11 05:21:00,,0822.6,5.00,0.00,21.9,21.3,00.0,31.2,23.2,05.5,0000.0,0003.76,0001.31,0000.99
2021-12-11 05:22:00,,0822.6,5.01,0.00,21.8,21.1,00.0,31.1,23.1,05.4,0000.0,0003.96,0001.29,0000.98
2021-12-11 05:23:00,,0822.6,4.99,0.00,21.7,20.9,00.0,31.1,23.0,05.4,0000.0,0003.94,0001.30,0000.97
2021-12-11 05:24:00,,0822.6,5.01,0.00,21.7,21.4,00.0,31.1,23.2,05.5,0000.0,0003.34,0001.30,0000.97
2021-12-11 05:25:00,,0822.6,5.00,0.00,21.8,22.2,00.0,31.1,23.6,05.6,0000.0,0003.31,0001.30,0000.97
2021-12-11 05:26:00,,0822.6,5.00,0.00,22.0,22.9,00.0,31.1,23.9,05.7,0000.0,0003.58,0001.35,0000.98
2021-12-11 05:27:00,,0822.5,4.99,0.00,22.1,22.9,00.0,31.1,24.0,05.7,0000.0,0004.37,0001.37,0000.98
2021-12-11 05:28:00,,0822.4,5.01,0.00,22.1,22.5,00.0,31.1,23.9,05.6,0000.0,0004.80,0001.38,0000.98
2021-12-11 05:29:00,,0822.5,5.01,0.00,22.1,22.1,00.0,31.1,23.7,05.7,0000.0,0004.42,0001.44,0000.98
2021-12-11 05:30:00,,0822.5,5.00,0.00,22.0,21.8,00.0,31.1,23.6,05.7,0000.0,0004.45,0001.51,0000.99
2021-12-11 05:31:00,,0822.5,5.01,0.00,21.9,21.6,00.0,31.1,23.4,05.6,0000.0,0004.66,0001.58,0001.00
2021-12-11 05:32:00,,0822.5,5.00,0.00,21.9,21.4,00.0,31.1,23.3,05.3,0000.0,0004.67,0001.61,0001.00
2021-12-11 05:33:00,,0822.6,5.00,0.00,21.8,21.1,00.0,31.0,23.2,05.4,0000.0,0004.40,0001.62,0001.00
2021-12-11 05:34:00,,0822.6,5.01,0.00,21.7,21.0,00.0,31.0,23.0,05.8,0000.0,0004.48,0001.67,0001.00
2021-12-11 05:35:00,,0822.6,4.99,0.00,21.6,20.9,00.0,31.0,23.0,05.8,0000.0,0004.47,0001.67,0001.00
2021-12-11 05:36:00,,0822.6,5.01,0.00,21.7,21.2,00.0,30.9,23.2,05.9,0000.0,0004.45,0001.66,0001.00
2021-12-11 05:37:00,,0822.6,5.00,0.00,21.8,22.2,00.0,31.0,23.6,05.8,0000.0,0004.36,0001.69,0001.00
2021-12-11 05:38:00,,0822.6,4.99,0.00,22.0,22.9,00.0,31.0,23.9,05.7,0000.0,0003.90,0001.73,0001.00
2021-12-11 05:39:00,,0822.5,5.01,0.00,22.1,22.8,00.0,31.0,24.0,05.4,0000.0,0003.34,0001.75,0001.01
2021-12-11 05:40:00,,0822.4,4.99,0.00,22.1,22.5,00.0,31.0,23.8,05.4,0000.0,0003.82,0001.68,0001.01
2021-12-11 05:41:00,,0822.4,5.01,0.00,22.0,22.2,00.0,31.0,23.7,05.5,0000.0,0004.52,0001.68,0001.00
2021-12-11 05:42:00,,0822.4,5.00,0.00,22.0,21.9,00.0,31.0,23.6,05.5,0000.0,0006.22,0001.65,0001.01
2021-12-11 05:43:00,,0822.4,5.00,0.00,21.9,21.7,00.0,31.0,23.5,05.4,0000.0,0006.21,0001.65,0001.02
2021-12-11 05:44:00,,0822.4,4.99,0.00,21.9,21.5,00.0,31.0,23.4,05.5,0000.0,0006.30,0001.68,0001.03
2021-12-11 05:45:00,,0822.4,5.00,0.00,21.8,21.3,00.0,31.0,23.3,05.3,0000.0,0006.28,0001.66,0001.04
2021-12-11 05:46:00,,0822.4,5.00,0.00,21.7,21.1,00.0,30.9,23.2,05.3,0000.0,0006.38,0001.66,0001.05
2021-12-11 05:47:00,,0822.4,4.99,0.00,21.7,20.9,00.0,30.9,23.1,05.4,0000.0,0007.47,0001.72,0001.05
2021-12-11 05:48:00,,0822.4,4.99,0.00,21.6,20.9,00.0,30.9,23.0,05.4,0000.0,0007.78,0001.72,0001.07
2021-12-11 05:49:00,,0822.4,5.00,0.00,21.7,21.7,00.0,30.9,23.4,05.3,0000.0,0007.92,0001.67,0001.09
2021-12-11 05:50:00,,0822.4,5.00,0.00,21.9,22.5,00.0,31.0,23.7,05.3,0000.0,0008.31,0001.66,0001.09
2021-12-11 05:51:00,,0822.4,5.01,0.00,22.0,23.0,00.0,31.0,24.0,05.2,0000.0,0007.91,0001.70,0001.10
2021-12-11 05:52:00,,0822.4,5.01,0.00,22.0,22.6,00.0,31.0,23.9,05.1,0000.0,0007.38,0001.70,0001.11
2021-12-11 05:53:00,,0822.4,4.99,0.00,22.0,22.2,00.0,31.0,23.6,05.3,0000.0,0006.03,0001.71,0001.11
2021-12-11 05:54:00,,0822.4,5.01,0.00,21.9,21.9,00.0,31.0,23.4,05.0,0000.0,0006.14,0001.75,0001.11
2021-12-11 05:55:00,,0822.6,4.99,0.00,21.8,21.5,00.0,30.9,23.2,05.1,0000.0,0006.17,0001.71,0001.11
2021-12-11 05:56:00,,0822.4,5.02,0.00,21.7,21.2,00.0,30.9,23.0,05.4,0000.0,0006.10,0001.69,0001.11
2021-12-11 05:57:00,,0822.5,4.98,0.00,21.6,20.9,00.0,30.9,22.9,05.5,0000.0,0006.06,0001.71,0001.13
2021-12-11 05:58:00,,0822.4,5.02,0.00,21.5,20.8,00.0,30.8,22.8,05.6,0000.0,0005.19,0001.67,0001.14
2021-12-11 05:59:00,,0822.5,4.99,0.00,21.6,21.6,00.0,30.8,23.2,05.6,0000.0,0004.21,0001.68,0001.15
